STARLINK-2734, 48657

Orbit data source: Space-Track

STARLINK-2734, 48657 is a payload satellite owned by SpaceX/Seattle (US) in LEO that was launched on Wed, 26 May 2021 UTC via an FALCON 9 launch vehicle from the Air Force Eastern Test Range (AFETR). Payload-class satellites include a variety of spacecraft equipped with specific instruments for various scientific and technological missions. These include communications satellites like Starlink; space stations such as the ISS; scientific satellites like the Hubble; Earth observation satellites from companies like Planet Labs, Umbra, and HawkEye 360; GPS; miniature CubeSats for education and research; and military/defense satellites.

Loading next visibility...
Identifier
48657, 2021-044V
Orbit
LEO
Country
Flag of USUS
Related business
Manufacturer
SpaceX/Seattle
Mission
Operational Commercial Communications
Bus & Motor
STARLINK, Unknown motor
Mass
260 kg wet, ~248 kg dry
Launch date (UTC)
2021-05-26 (5 years ago)
Launch vehicle
FALCON 9
Launch site
Air Force Eastern Test Range (AFETR)
Object type
Payload
Rocket body
Debris
Shape & HBR
Box + 1 Pan, 10.1 m
Radar Cross Section
13.562 m², Large (>1 m²)

Expand to show TLE details & history
Last TLE update: 1 day ago

TLE from 1 day ago
0 STARLINK-2734
1 48657U 21044V   25348.70666407  .00000034  00000-0  21164-4 0  9994
2 48657  53.0541 142.7640 0001240  89.7549 270.3582 15.06404583250902
Epoch: 2025-12-14T16:57Z
TLE epoch observation values (Epoch: 2025-12-14T16:57:35.775Z)
Latitude
-0.00004°
Longitude
164.74918°
Altitude
548.071 km
Speed
7.589 km/s
True Right ascension
09h 31m 03s
True Declination
0° 00' 00"
Sunlit
Object was in full shadow at epoch
Visualization orbit readout
Latitude
Unknown
Longitude
Unknown
Altitude
Unknown
Speed
Unknown
Apparent Right ascension
Unknown
Apparent Declination
Unknown
Sunlit
N/A
Visualization observer readout
Local Sidereal Time
02:28:03
Azimuth
Unknown
Elevation
Unknown
Doppler factor
Unknown
Orbital elements
Apogee altitude
548.327 km
Perigee altitude
546.61 km
Semi-major axis
6,925.605 km
Eccentricity
0.00012
Inclination
53.0541°
RAAN
142.764°
Arg. of periapsis
89.7549°
True anomaly
270.34399°
Mean anomaly
270.3582°
Eccentric anomaly
270.3511°
Mean motion
3.76579 °/min
Orbital period
95.6 mins
BSTAR
0.000021164
Loading maneuver chart data...
Computing Atmospheric mass density...
Loading historical data...
Loading historical data...
Loading historical data...
Loading historical data...
Loading historical data...
Loading historical data...
Loading historical data...

Documentation

Showing up to 5 results
|